Miscellaneous Local Product
Issued by NWS Hastings, NE

Home | Current Version | Previous Version | Text Only | Print | Product List | Glossary Off
Versions: 1 2 3 4 5 6 7 8 9 10 11 12 13 14 15 16 17 18 19 20 21 22 23 24 25 26 27 28 29 30 31 32 33 34 35 36 37 38 39 40 41 42 43 44 45 46 47 48 49 50

000
AXUS43 KGID 021002
MISGRI

GID CWA HOURLY WEATHER ROUNDUP
NATIONAL WEATHER SERVICE HASTINGS NE
500 AM CDT THU JUL 02 2015

NOTE: "FAIR" INDICATES FEW OR NO CLOUDS BELOW 12,000 FEET WITH NO
SIGNIFICANT WEATHER AND/OR OBSTRUCTIONS TO VISIBILITY.

...SOUTH CENTRAL NEBRASKA...

CITY           SKY/WX    TMP DP  RH WIND       PRES   REMARKS
GRAND ISLAND   CLOUDY    68  67  96 E7        29.97R FOG
HASTINGS       CLOUDY    70  68  93 E5        29.97R FOG
KEARNEY        CLOUDY    70  66  88 CALM      29.98R

...NEBRASKA PANHANDLE...

CITY           SKY/WX    TMP DP  RH WIND       PRES   REMARKS
CHADRON        CLOUDY    60  58  92 W7        30.04F
ALLIANCE       LGT RAIN  60  58  92 S6        30.12F
SCOTTSBLUFF    LGT RAIN  60  32  34 S9        30.14F
SIDNEY         LGT RAIN  58  57  97 NE24G32   30.20R

...WESTERN AND NORTH CENTRAL NEBRASKA...

CITY           SKY/WX    TMP DP  RH WIND       PRES   REMARKS
VALENTINE      CLOUDY    66  64  93 SW5       29.96F
BROKEN BOW     LGT RAIN  69  66  90 NW6       30.00S FOG
IMPERIAL       LGT RAIN  64  57  78 N32G46    30.10R
NORTH PLATTE   LGT RAIN  65  60  84 N20G30    30.04R
MCCOOK         MOCLDY    72  64  76 SE10      29.94S

...EASTERN NEBRASKA...

CITY           SKY/WX    TMP DP  RH WIND       PRES   REMARKS
NORFOLK        CLOUDY    64  60  87 E7        29.96S
SO SIOUX CITY  CLOUDY    60  54  80 E7        29.97F
TEKAMAH        MOCLDY    63  58  83 NE5       29.96S
COLUMBUS       CLOUDY   N/A N/A N/A E8        29.95S
OMAHA EPPLEY   MOCLDY    65  59  81 NE3       29.94S
OFFUTT AFB     MOCLDY    65  60  84 NE7       29.93R
LINCOLN        CLOUDY    69  65  86 E9        29.94R FOG
FALLS CITY     CLOUDY    70  67  90 E8        29.88S

...NORTHERN KANSAS...

CITY           SKY/WX    TMP DP  RH WIND       PRES   REMARKS
GOODLAND       MOCLDY    65  59  81 W5        30.04R
HILL CITY      CLOUDY    74  66  76 E5        29.96R
NORTON         PTSUNNY   73  64  73 NE7       29.96S
PHILLIPSBURG   PTCLDY    75  70  83 NE6       29.96R
SMITH CENTER   CLOUDY    72  70  94 E8        29.95R
HAYS           CLOUDY    72  64  78 NE6       29.95R
RUSSELL        MOCLDY    71  69  93 CALM      29.92R
CONCORDIA      CLOUDY    72  69  90 E5        29.91R
SALINA         MOCLDY    78  71  79 E7        29.88R
TOPEKA         CLOUDY    73  71  93 N6        29.85R



USA.gov is the U.S. government's official web portal to all federal, state and local government web resources and services.